This is the latest recevied weather packets stored in our database for station/object KD8FRE. If no packets are shown the sender has not sent any weather packets the latest 10 day(s).
| Time | Temp. | Humidity | Pressure | Rain* | Wind** | Luminosity | Snow |
|---|---|---|---|---|---|---|---|
| 1777573693 | 10° C | 46% | 1014.6 hPa | 0 mm | - | 797 W/m² | - |
| 1777573390 | 9.44° C | 42% | 1014.6 hPa | 0 mm | - | 278 W/m² | - |
| 1777573085 | 9.44° C | 46% | 1014.6 hPa | 0 mm | - | 166 W/m² | - |
| 1777572782 | 10° C | 43% | 1014.5 hPa | 0 mm | - | 189 W/m² | - |
| 1777572482 | 9.44° C | 47% | 1014.8 hPa | 0 mm | - | 263 W/m² | - |
| 1777572178 | 8.89° C | 47% | 1014.8 hPa | 0 mm | - | 616 W/m² | - |
| 1777571874 | 8.89° C | 52% | 1014.6 hPa | 0 mm | - | 288 W/m² | - |
| 1777571569 | 8.89° C | 47% | 1014.6 hPa | 0 mm | - | 379 W/m² | - |
| 1777571266 | 8.89° C | 49% | 1014.6 hPa | 0 mm | - | 188 W/m² | - |
| 1777570963 | 8.89° C | 50% | 1014.8 hPa | 0 mm | - | 226 W/m² | - |
| 1777570658 | 8.89° C | 56% | 1014.7 hPa | 0 mm | - | 268 W/m² | - |
| 1777570356 | 9.44° C | 55% | 1014.7 hPa | 0 mm | - | 104 W/m² | - |
| 1777570051 | 8.89° C | 54% | 1014.8 hPa | 0 mm | - | 177 W/m² | - |
| 1777569747 | 8.89° C | 55% | 1014.9 hPa | 0 mm | - | 756 W/m² | - |
| 1777569442 | 8.89° C | 54% | 1015 hPa | 0 mm | - | 113 W/m² | - |
| 1777569140 | 8.89° C | 50% | 1014.8 hPa | 0 mm | - | 171 W/m² | - |
| 1777568837 | 8.33° C | 54% | 1014.9 hPa | 0 mm | - | 960 W/m² | - |
| 1777568534 | 8.33° C | 56% | 1014.9 hPa | 0 mm | - | 152 W/m² | - |
| 1777568230 | 8.89° C | 52% | 1014.9 hPa | 0 mm | - | 132 W/m² | - |
| 1777567927 | 9.44° C | 49% | 1014.9 hPa | 0 mm | - | 140 W/m² | - |
| 1777567623 | 8.89° C | 56% | 1015.1 hPa | 0 mm | - | 430 W/m² | - |
| 1777567320 | 8.89° C | 56% | 1015 hPa | 0 mm | - | 450 W/m² | - |
| 1777567019 | 8.33° C | 54% | 1015 hPa | 0 mm | - | 703 W/m² | - |
| 1777566717 | 8.33° C | 56% | 1015.2 hPa | 0 mm | - | 121 W/m² | - |
| 1777566414 | 8.33° C | 56% | 1015 hPa | 0 mm | - | 87 W/m² | - |
* Rain latest hour (hover to see other rain measurements)
** Current wind speed in m/s (hover to see current wind gust speed)